Orbital Elements at Epoch 2459000.5 (2020-May-31.0) TDB
Reference: JPL 16 (heliocentric ecliptic J2000)
Element | Value | Uncertainty (1-sigma) | Units |
e | .1921000621604461 | 4.6868e-08 | |
a | 2.381050714905052 | 1.2808e-08 | au |
q | 1.923650724564617 | 1.09e-07 | au |
i | 5.916910071655731 | 5.0736e-06 | deg |
node | 227.6598261725534 | 3.2671e-05 | deg |
peri | 4.473335201981321 | 3.5836e-05 | deg |
M | 5.501283128976211 | 1.0927e-05 | deg |
tp | 2458979.992491908348 (2020-May-10.49249191) | 4.0804e-05 | TDB |
period | 1341.996537882025 3.67 | 1.0828e-05 2.965e-08 | d yr |
n | .268257025884852 | 2.1644e-09 | deg/d |
Q | 2.838450705245487 | 1.5268e-08 | au |
|
| | Orbit Determination Parameters
Additional Information
|